星链-35520(STARLINK-35520)

导读

STARLINK-35520是美国SpaceX公司星链星座的一颗卫星,于2025年10月22日发射,属于星链全球低轨宽带互联网星座的组网卫星。作为星链大规模组网的一部分,它延续星链卫星的典型设计,采用平板构型搭配太阳能阵列,搭载霍尔推进器,运行于近地轨道。它将和其他已部署的万余颗星链卫星协同,为全球尤其是偏远地区提供高速宽带互联网接入服务,进一步完善星链星座的覆盖能力。

基本信息
目录编号:
66133
目录名称:
STARLINK-35520
国际标识:
2025-237V
轨道中心:
EARTH
卫星名称:
星链-35520
卫星全名:
星链-35520(STARLINK-35520)
卫星状态:
在轨 (已飞行234 天)
发射日期:
2025-10-22 UTC
国别 :
美国 (US)
星等 :
--
轨道信息
数据来源 国际轨道数据
星历时间: 2026-06-13T08:00:02+0800
12小时前
查看轨道信息
半长轴: 6840.906km
偏心率: 0.0000978
轨道倾角: 53.159°
近地点辐角 91.835°
升交点赤经 316.551°
平近点角 69.330°
近地点: 462.099km
远地点: 463.439km
周期: 93.849分钟
每日圈数: 15.343779
详细信息
固有亮度:
5
最大亮度:
2.5
卫星平台:
Starlink V1.0
覆盖范围:
全球
运营商:
太空探索技术公司
运营商所在国:
美国
制造商(研发单位):
太空探索技术公司
制造商所在国:
美国
使用方式:
暂无
卫星简介
Starlink 计划是 SpaceX 推出的全球卫星互联网项目,通过发射低轨道卫星,为全球尤其是偏远地区提供高速、低延迟的互联网服务。自 2019 年起,Starlink 已部署数千颗卫星,旨在缩小全球数字鸿沟,推动互联网普及。该项目还为军事、航空等行业提供通信支持,带来广泛经济效益。
2D轨道图
3D轨道图
轨道高度分析图
轨道倾角分析图
轨道综合分析图
查看轨道综合分析图